Other Surface Observations
Issued by NWS

Home | Current Version | Previous Version | Text Only | Print | Product List | Glossary On
Versions: 1 2 3 4 5 6 7 8 9 10 11 12 13 14 15 16 17 18 19 20 21 22 23 24 25 26 27 28 29 30 31 32 33 34 35 36 37 38 39 40 41 42 43 44 45 46 47 48 49 50
000
SXUS52 KTAE 290618
OSOTAE
OSOTAE
North Florida/South Alabama/Southwest Georgia Weather Roundup
National Weather Service Tallahassee Florida
200 AM EDT SUN MAR 29 2015

Note: "fair" indicates few or no clouds below 12,000 feet with no
significant weather and/or obstructions to visibility.

!FLZ017-115-028-034-025-290700
...North Florida...

CITY           SKY/WX    TMP DP  RH WIND       PRES   REMARKS
TALLAHASSEE    CLEAR     44  37  76 CALM      30.29R
APALACHICOLA   CLEAR     50  39  66 N3        30.28S
PERRY          CLEAR     45  39  79 NW3       30.28S
CROSS CITY       N/A     41  37  86 NW5       30.26S WCI  38
JACKSONVILLE   MOCLDY    45  42  89 CALM      30.24S
$$

!FLZ112-006-005-002-011-290700
...Florida Panhandle...

CITY           SKY/WX    TMP DP  RH WIND       PRES   REMARKS
MARIANNA       CLEAR     43  34  70 CALM      30.29S
BONIFAY        FAIR      42  38  85 CALM      30.31S
PANAMA CITY NW FAIR      45  33  63 N3        30.28S
TYNDALL AFB    CLEAR     50  34  53 NE5       30.29R
TYND DRONE APT FAIR      49  37  64 N12       30.28S WCI  44
DE FUNIAK SPR  FAIR      43  33  69 N3        30.30S
EGLIN AFB      CLEAR     45  30  56 N7        30.29R WCI  41
DESTIN         CLEAR     49  32  52 NE7       30.30R
HURLBURT       CLEAR     44  29  55 N8        30.29R WCI  40
CRESTVIEW      CLEAR     41  32  70 CALM      30.32R
PENSACOLA      CLEAR     48  31  51 NE8       30.30R WCI  44
$$

!ALZ063-066-290700
...South Alabama...

CITY           SKY/WX    TMP DP  RH WIND       PRES   REMARKS
DOTHAN         MOCLDY    44  31  60 N7        30.33R WCI  40
OZARK CAIRNS   CLOUDY    44  29  57 N5        30.30R WCI  41
FT RUCKER HELI CLOUDY    44  32  62 N6        30.30R WCI  41
RUCKER HELI 3  MOCLDY    44  32  63 N6        30.31R WCI  40
RUCKER HELI 2  CLOUDY    43  31  62 N7        30.30R WCI  39
FLORALA APT    CLEAR     40  34  79 CALM      30.32R
ANDALUSIA      PTCLDY    47  30  51 NE5       30.30R WCI  45
TROY           CLOUDY    44  32  62 CALM      30.32R
EUFALA         CLOUDY    46  32  58 CALM      30.30R
MOBILE         CLEAR     45  33  63 NE7       30.31R WCI  41
$$

!GAZ120>161-290700
...Southwest and South Central Georgia...

CITY           SKY/WX    TMP DP  RH WIND       PRES   REMARKS
THOMASVILLE    CLOUDY    48  34  57 NW3       30.30R
BAINBRIDGE     CLEAR     48  32  53 NW6       30.30S
MOODY AFB      CLOUDY    46  40  78 NW7       30.26R WCI  42
VALDOSTA       CLOUDY    46  37  71 VRB3      30.28R
MOULTRIE       CLOUDY    48  34  57 NW3       30.29S
BLAKELY        MOCLDY    48  32  53 NW5       30.31R
ALBANY         CLOUDY    49  29  46 NW7       30.31R
TIFTON         MOCLDY    47  31  53 NW3       30.28R
FITZGERALD     CLOUDY    49  22  35 N5        30.31R
CORDELE        CLOUDY    48  22  36 CALM      30.31R
AMERICUS       CLOUDY    45  21  39 CALM      30.31R
HOMERVILLE     MOCLDY    48  45  87 NW3       30.27S
$$

!GMZ750-755-770-775-290700
...Coastal and Buoy Obs...

STATION/POSITION TIME  TEMP    WIND        PRES    VSBY  WAVE
                       AIR SEA DIR/SP/G                  HT/PER
                 (UTC) (F)     (DEG/KT/KT) (MB)    (MI)  (FT/S)
KEATON BEACH     0600   50     360/  4/  6 1025.2S
CEDAR KEY        0600   54      10/  4/  7 1025.0F
C TOWER          0600   56     360/ 15/ 16 1024.7F
APALACHICOLA BUO 0550   63 68  350/ 10/ 14 1024.5F         2/ 5
PANAMA CITY BUOY 0550   62 75   10/  6/ 10 1025.1F         1/ 4
MOBILE BUOY      0550   62 71  100/  6/  8 1025.1S         1/ 4
ORANGE BCH AL BU 0550   58 67   60/ 14/ 16 1024.8S         1/ 3
$$



USA.gov is the U.S. government's official web portal to all federal, state and local government web resources and services.